Terminal Aerodrome Forecast
Issued by NWS

Home | Current Version | Previous Version | Graphics & Text | Print | Product List | Glossary On
Versions: 1 2 3 4 5 6 7 8 9 10 11 12
000
FTUS43 KBIS 011700
TAFJMS
TAF
KJMS 011736Z 0118/0218 30015KT P6SM SCT040
     FM011900 30017KT P6SM VCSH SCT020
     FM020100 28010KT P6SM FEW030=

USA.gov is the U.S. government's official web portal to all federal, state and local government web resources and services.